Regional Weather Roundup
Issued by NWS

Home | Current Version | Previous Version | Text Only | Print | Product List | Glossary Off
Versions: 1 2 3 4 5 6 7 8 9 10 11 12 13 14 15 16 17 18 19 20 21 22 23 24 25 26 27 28 29 30 31 32 33 34 35 36 37 38 39 40 41 42 43 44 45 46 47 48 49 50

000
ASUS43 KIND 272059
RWRIN

WEATHER ROUNDUP FOR INDIANA
NATIONAL WEATHER SERVICE INDIANAPOLIS IN
500 PM EDT MON JUL 27 2015

NOTE: "FAIR" INDICATES FEW OR NO CLOUDS BELOW 12,000 FEET WITH NO
SIGNIFICANT WEATHER AND/OR OBSTRUCTIONS TO VISIBILITY.

* - STATION DOES NOT REPORT WEATHER SUCH AS PRECIPITATION OR FOG.

+ - STATION NOT QUALITY CONTROLLED BY THE NATIONAL WEATHER SERVICE.
    USE DATA WITH CAUTION...ESPECIALLY DEWPOINT AND RELATIVE
    HUMIDITY OBSERVATIONS.

INZ001>003-010>013-019-020-272200-
NORTHWEST INDIANA

CITY           SKY/WX    TMP DP  RH WIND       PRES   REMARKS
GARY /AIRPORT/ MOSUNNY   84  68  58 NE10      29.99F
MONTICELLO +   MOSUNNY   84  72  65 E6        29.97F
RENSSELAER +   MOSUNNY   86  68  54 E10       29.98F

$$

LMZ046-743>745-272200-
SOUTHERN LAKE MICHIGAN

STATION/POSITION TIME  TEMP    WIND        PRES    WAVE
                       AIR SEA DIR/SP/G            HT
                 (UTC) (F)     (DEG/KT/KT) (MB)    (FT)
BURNS HARBOR     2000   75      20/ 10/ 13 1016.3S
MICHIGAN CITY    2000   78     360/  7/ 11   N/A
5NW MICH CITY    2000   76 76   40/ 10/ 12   N/A     1

$$

INZ004-005-014>016-021>024-272200-
NORTH CENTRAL INDIANA

CITY           SKY/WX    TMP DP  RH WIND       PRES   REMARKS
ELKHART        MOSUNNY   86  57  37 SE7       30.02F
GOSHEN         MOSUNNY   85  65  51 E9        30.01F
SOUTH BEND     SUNNY     88  59  37 NE6       30.01F

$$

INZ006>009-017-018-025>027-272200-
NORTHEAST INDIANA

CITY           SKY/WX    TMP DP  RH WIND       PRES   REMARKS
ANGOLA *+      SUNNY     84  81  89 E7        30.02F HX  98
FORT WAYNE     PTSUNNY   85  60  42 E12       30.00F

$$

INZ028-029-035-036-043>045-051>053-272200-
WEST CENTRAL INDIANA

CITY           SKY/WX    TMP DP  RH WIND       PRES   REMARKS
CRAWFORDSVL +  MOSUNNY   81  69  67 CALM        N/A
GREENCASTLE +  PTSUNNY   84  68  58 N5        29.96F
LAFAYETTE      CLOUDY    82  72  71 E5        29.96F
TERRE HAUTE    MOSUNNY   88  74  63 N5        29.94F HX  96

$$

INZ030>032-037>040-046>048-054>057-064-065-272200-
CENTRAL INDIANA

CITY           SKY/WX    TMP DP  RH WIND       PRES   REMARKS
COLUMBUS       MOSUNNY   84  68  58 E3        29.95F
GREENWOOD *+   MOSUNNY   86  68  54 E5        29.96F
INDIANAPOLIS   PTSUNNY   87  69  54 NW3       29.95F
-EAGLE CREEK   MOSUNNY   85  71  63 CALM      29.95F
KOKOMO *+      PTSUNNY   82  70  65 E10       29.98F
MT COMFORT *+  SUNNY     86  75  70 CALM      29.97F HX  95
SHELBYVILLE    MOSUNNY   86  73  65 CALM      29.95F

$$

INZ033-034-041-042-049-050-058-059-272200-
EAST CENTRAL INDIANA

CITY           SKY/WX    TMP DP  RH WIND       PRES   REMARKS
MUNCIE         PTSUNNY   80  72  76 E6        29.99F

$$

INZ060-061-067>069-081>083-085>088-272200-
SOUTHWEST INDIANA

CITY           SKY/WX    TMP DP  RH WIND       PRES   REMARKS
EVANSVILLE     MOSUNNY   88  75  65 E5        29.93F HX  97
HUNTINGBURG *+ MOSUNNY   88  75  66 CALM      29.94F HX  97

$$

INZ062-063-066-070>080-084-089>092-272200-
SOUTH CENTRAL AND SOUTHEAST INDIANA

CITY           SKY/WX    TMP DP  RH WIND       PRES   REMARKS
BLOOMINGTON    MOSUNNY   88  73  61 VRB3      29.95F HX  95
MADISON *+     PTSUNNY   88  72  58 CALM      29.98S
SEYMOUR +      MOSUNNY   91  73  55 SW5       29.94F HX 100

$$




USA.gov is the U.S. government's official web portal to all federal, state and local government web resources and services.